Flag for Argentina Past Weather in Comodoro Rivadavia, Chubut, Argentina — Yesterday and Last 2 Weeks

Now
59 °F

Sunny.


Feels Like: 59 °F
Forecast: 50 / 62 °F
Wind: 1 mph from North

Location: Comodoro Rivadavia Aerodrome

Current Time: Aug 25, 2016 at 2:04:35 PM

Latest Report: Aug 25, 2016 at 1:00 PM


Visibility: 10 mi

Pressure: 29.77 "Hg

Humidity: 68%

Dew Point: 48 °F

Location of Comodoro RivadaviaLocation

Past Weather in Comodoro Rivadavia — Graph

°F

Comodoro Rivadavia Temperature Yesterday

Maximum temperature yesterday: 61 °F (at 2:00 PM)
Minimum temperature yesterday: 48 °F (at 7:00 AM)
Average temperature yesterday: 53 °F

High & Low Weather Summary for the Past Weeks

 TemperatureHumidityPressure
High66 °F (Aug 23, 1:00 PM)100% (Aug 11, 12:00 AM)30.54 "Hg (Aug 11, 12:00 AM)
Low30 °F (Aug 19, 8:00 AM)34% (Aug 21, 2:00 AM)29.36 "Hg (Aug 11, 10:00 AM)
Average45 °F71%29.82 "Hg
* Reported Aug 10 1:00 PM — Aug 25 1:00 PM, Comodoro Rivadavia, Weather by CustomWeather, © 2016

Note: Actual official high and low records may vary slightly from our data, if they occured in-between our weather recording intervals... More about our weather records

Advertising

Comodoro Rivadavia Weather History for the Previous 24 Hours

Scroll right to see more
 ConditionsComfort  
Time TempWeatherWind HumidityBarometerVisibility
1:00 PM
Thu, Aug 25
59 °FSunny.1 mph68%29.77 "Hg10 mi
12:00 PM54 °FSunny.1 mph77%29.77 "Hg10 mi
11:00 AM52 °FSunny.2 mph77%29.77 "Hg10 mi
10:00 AM50 °FSunny.No wind82%29.77 "Hg10 mi
9:00 AM50 °FSunny.3 mph82%29.77 "Hg10 mi
8:00 AM48 °FPartly sunny.2 mph82%29.77 "HgN/A
7:00 AM46 °FClear.1 mph87%29.77 "Hg10 mi
6:00 AM48 °FClear.No wind82%29.77 "Hg10 mi
5:00 AM48 °FClear.1 mph87%29.77 "Hg10 mi
4:00 AM48 °FClear.3 mph76%29.80 "Hg10 mi
3:00 AM48 °FClear.1 mph82%29.77 "Hg10 mi
2:00 AM48 °FClear.No wind76%29.80 "Hg10 mi
1:00 AM52 °FClear.5 mph67%29.80 "Hg10 mi
12:00 AM50 °FPassing clouds.3 mph76%29.80 "HgN/A
11:00 PM
Wed, Aug 24
52 °FClear.8 mph62%29.80 "Hg10 mi
10:00 PM50 °FPassing clouds.5 mph76%29.80 "HgN/A
9:00 PM48 °FClear.No wind87%29.80 "Hg10 mi
8:00 PM50 °FPassing clouds.2 mph82%29.83 "HgN/A
7:00 PM52 °FClear.2 mph77%29.80 "Hg10 mi
6:00 PM57 °FClear.2 mph63%29.80 "Hg10 mi
5:00 PM55 °FSunny.3 mph67%29.80 "Hg10 mi
4:00 PM57 °FSunny.7 mph55%29.80 "Hg10 mi
3:00 PM59 °FSunny.8 mph51%29.83 "Hg10 mi
2:00 PM61 °FSunny.8 mph48%29.86 "Hg10 mi
Weather by CustomWeather, © 2016

See weather overviewHow to use our weather pages